Regional Weather Roundup
Issued by NWS

Home | Current Version | Previous Version | Text Only | Print | Product List | Glossary Off
Versions: 1 2 3 4 5 6 7 8 9 10 11 12 13 14 15 16 17 18 19 20 21 22 23 24 25 26 27 28 29 30 31 32 33 34 35 36 37 38 39 40 41 42 43 44 45 46 47 48 49 50

000
ASUS45 KSLC 281410
RWRUT

UTAH REGIONAL WEATHER ROUNDUP
NATIONAL WEATHER SERVICE SALT LAKE CITY UT
800 AM MDT THU AUG 28 2014

UTZ001>011-023>025-281500-

NORTHERN UTAH

CITY           SKY/WX    TMP DP  RH WIND       PRES   REMARKS
HILL AFB       SUNNY     58  48  69 E16       30.25R
LOGAN          SUNNY     53  52  96 CALM      30.24S
OGDEN          SUNNY     59  49  69 S6        30.23R
PROVO AIRPORT  SUNNY     55  48  76 E6        30.28R
SALT LAKE CITY MOSUNNY   62  52  69 SE12      30.22R
VERNAL         PTSUNNY   55  54  96 NW3       30.27R
WENDOVER       SUNNY     61  45  55 NE3       30.21R
HEBER CITY     CLOUDY    46  46 100 CALM      30.34S FOG
WEST JORDAN    SUNNY     61  55  82 S8        30.25R

$$

UTZ012>022-026-027-281500-

SOUTHERN UTAH

CITY           SKY/WX    TMP DP  RH WIND       PRES   REMARKS
BRYCE CANYON   MOSUNNY   43  40  89 W6        30.42R
CEDAR CITY     SUNNY     50  45  83 CALM      30.30R
MILFORD        SUNNY     53  45  74 S12       30.28R
MOAB/CYNLANDS  SUNNY     63  51  65 W3        30.22R
PRICE          SUNNY     57  45  64 CALM      30.30R
ST GEORGE      SUNNY     64  46  52 S3        30.17R
KANAB            N/A     57  45  62 NW9       30.30S

$$

REGIONAL REPORTS     COLORADO/ARIZONA

CITY           SKY/WX    TMP DP  RH WIND       PRES   REMARKS
CRAIG, CO      CLOUDY    53  50  89 NW3       30.30R
GRAND JUNCTION CLOUDY    57  55  93 E3        30.25R
RIFLE          LGT RAIN  55  53  93 NW6       30.28R
MONTROSE       CLOUDY    55  52  89 SE3       30.32R
CORTEZ         MOSUNNY   51  48  89 E5        30.32R
PAGE, AZ       SUNNY     68  44  42 CALM      30.22R
GRAND CANYON   SUNNY     46  43  89 NE3       30.35F
KINGMAN        SUNNY     64  42  44 S6        30.14S
FLAGSTAFF      SUNNY     48  46  93 CALM      30.37S

$$

REGIONAL REPORTS    NEVADA/IDAHO/WYOMING

CITY           SKY/WX    TMP DP  RH WIND       PRES   REMARKS
LAS VEGAS, NV  CLEAR     77  39  25 SW8       30.02R
ELY            CLEAR     44  39  82 S8        30.34S
ELKO           PTCLDY    47  37  68 CALM      30.28R
POCATELLO, ID  MOSUNNY   55  51  86 N5        30.22R
BURLEY         SUNNY     57  49  74 CALM      30.17R
EVANSTON, WY   CLOUDY    48  46  93 S7        30.37R
ROCK SPRINGS   MOSUNNY   50  47  89 W8        30.31R

$$


USA.gov is the U.S. government's official web portal to all federal, state and local government web resources and services.